Prairie Du Chien, WI

8:00 PM CDT on August 19, 2017 (GMT -0500)
Prairie Du Chien Municipal

Weather History for KPDC - December, 2011

Change the Weather History Date:

Thursday, December 15, 2011

  Actual Average Record
Temperature  
Mean Temperature 38 °F -  
Max Temperature 46 °F 32 °F 50 °F (1979)
Min Temperature 29 °F 16 °F -14 °F (1961)
Degree Days  
Heating Degree Days 28    
Moisture  
Dew Point 28 °F    
Average Humidity 74    
Maximum Humidity 90    
Minimum Humidity 61    
Precipitation  
Precipitation 0.01 in - - ()
Sea Level Pressure  
Sea Level Pressure 29.90 in    
Wind  
Wind Speed 16 mph (West)    
Max Wind Speed 28 mph    
Max Gust Speed 37 mph    
Visibility 10 miles    
Events      
Averages and records for this station are not official NWS values.
T = Trace of Precipitation, MM = Missing Value Source: NWS Daily Summary

Daily Weather History Graph

Daily Weather History Graph

Search for Another Location

Airport or City:

Trip Planner

Search our weather history database for the weather conditions in past years. The results will help you decide how hot, cold, wet, or windy it might be!

Date:

Astronomy

Dec. 15, 2011 Rise Set
Actual Time 7:28 AM CST 4:30 PM CST
Civil Twilight 6:56 AM CST 5:02 PM CST
Nautical Twilight 6:20 AM CST 5:38 PM CST
Astronomical Twilight 5:45 AM CST 6:13 PM CST
Moon 10:03 PM CST (12/15) 10:38 AM CST (12/15)
Length of Visible Light 10h 06m
Length of Day
9h 01m
Waning Gibbous, 74% of the Moon is Illuminated
Dec 15
Waning Gibbous
Dec 17
Last Quarter
Dec 24
New
Jan 1
First Quarter
Jan 9
Full

Hourly Weather History & Observations

Time (CST) Temp. Windchill Dew Point Humidity Pressure Visibility Wind Dir Wind Speed Gust Speed Precip Events Conditions
12:15 AM 46.2 °F 40.8 °F 43.3 °F 90% 29.62 in 10.0 mi West 11.5 mph 18.4 mph N/A   Overcast
12:35 AM 45.5 °F 39.6 °F 42.3 °F 88% 29.63 in 10.0 mi West 12.7 mph 23.0 mph N/A   Overcast
12:55 AM 44.8 °F 38.3 °F 41.5 °F 88% 29.64 in 10.0 mi West 13.8 mph 19.6 mph N/A   Overcast
1:15 AM 44.4 °F 39.0 °F 41.0 °F 88% 29.64 in 10.0 mi West 10.4 mph - N/A   Overcast
1:35 AM 43.9 °F 37.5 °F 40.6 °F 88% 29.65 in 10.0 mi West 12.7 mph 24.2 mph N/A   Overcast
1:55 AM 43.7 °F 37.3 °F 40.1 °F 87% 29.66 in 10.0 mi West 12.7 mph - N/A   Overcast
2:15 AM 43.7 °F 37.7 °F 39.7 °F 86% 29.67 in 10.0 mi West 11.5 mph - N/A   Overcast
2:35 AM 43.2 °F 36.2 °F 39.2 °F 86% 29.67 in 10.0 mi West 13.8 mph 21.9 mph N/A   Overcast
2:55 AM 42.6 °F 35.6 °F 39.0 °F 87% 29.68 in 10.0 mi West 13.8 mph 18.4 mph N/A   Overcast
3:15 AM 42.4 °F 36.1 °F 38.5 °F 86% 29.69 in 10.0 mi West 11.5 mph 18.4 mph N/A   Overcast
3:35 AM 42.3 °F 35.5 °F 37.9 °F 85% 29.69 in 10.0 mi West 12.7 mph 19.6 mph N/A   Overcast
3:55 AM 41.9 °F 34.3 °F 37.8 °F 85% 29.68 in 10.0 mi West 15.0 mph - N/A   Overcast
4:15 AM 41.5 °F 33.8 °F 37.4 °F 85% 29.69 in 10.0 mi West 15.0 mph 19.6 mph N/A   Overcast
4:35 AM 41.2 °F 34.5 °F 37.2 °F 86% 29.70 in 10.0 mi West 11.5 mph - N/A   Overcast
4:55 AM 40.8 °F 33.7 °F 37.4 °F 88% 29.72 in 10.0 mi WSW 12.7 mph 24.2 mph N/A   Overcast
5:55 AM 39.4 °F 30.7 °F 36.1 °F 88% 29.74 in 10.0 mi West 16.1 mph 21.9 mph N/A   Overcast
6:15 AM 38.7 °F 29.8 °F 34.7 °F 86% 29.75 in 10.0 mi West 16.1 mph 26.5 mph N/A   Overcast
6:35 AM 38.1 °F 29.1 °F 33.6 °F 84% 29.77 in 10.0 mi West 16.1 mph 31.1 mph N/A   Overcast
6:55 AM 37.6 °F 26.9 °F 32.5 °F 82% 29.78 in 10.0 mi West 21.9 mph 31.1 mph N/A   Overcast
7:15 AM 37.0 °F 25.6 °F 31.8 °F 81% 29.80 in 10.0 mi West 24.2 mph 32.2 mph N/A   Overcast
7:35 AM 36.5 °F 25.4 °F 31.3 °F 81% 29.80 in 10.0 mi West 21.9 mph 31.1 mph N/A   Overcast
7:55 AM 35.8 °F 23.2 °F 31.3 °F 84% 29.82 in 10.0 mi West 27.6 mph 33.4 mph N/A   Overcast
8:35 AM 34.0 °F 24.6 °F 29.8 °F 85% 29.85 in 7.0 mi West 13.8 mph 18.4 mph N/A   Overcast
9:15 AM 32.7 °F 20.1 °F 27.1 °F 80% 29.87 in 10.0 mi West 23.0 mph 32.2 mph N/A   Overcast
9:35 AM 32.2 °F 20.4 °F 25.9 °F 78% 29.89 in 10.0 mi West 19.6 mph 28.8 mph N/A   Overcast
9:55 AM 32.2 °F 19.1 °F 25.5 °F 76% 29.90 in 10.0 mi West 24.2 mph 29.9 mph N/A   Overcast
10:15 AM 32.4 °F 20.6 °F 24.8 °F 74% 29.91 in 10.0 mi West 19.6 mph 29.9 mph N/A   Overcast
10:35 AM 32.7 °F 21.8 °F 24.4 °F 72% 29.92 in 10.0 mi West 17.3 mph 26.5 mph N/A   Overcast
11:15 AM 33.8 °F 22.5 °F 23.2 °F 65% 29.93 in 10.0 mi West 19.6 mph 28.8 mph N/A   Overcast
11:35 AM 34.0 °F 21.3 °F 23.7 °F 66% 29.93 in 10.0 mi WNW 25.3 mph 29.9 mph N/A   Overcast
11:55 AM 34.3 °F 22.9 °F 23.5 °F 65% 29.93 in 10.0 mi WNW 20.7 mph 31.1 mph N/A   Overcast
12:15 PM 34.5 °F 23.4 °F 23.5 °F 64% 29.94 in 10.0 mi West 19.6 mph 31.1 mph N/A   Overcast
12:35 PM 34.3 °F 23.2 °F 24.3 °F 67% 29.94 in 10.0 mi WNW 19.6 mph 34.5 mph N/A   Overcast
12:55 PM 34.7 °F 23.1 °F 23.9 °F 65% 29.95 in 10.0 mi WNW 21.9 mph 32.2 mph N/A   Overcast
1:15 PM 34.9 °F 23.0 °F 23.2 °F 62% 29.96 in 10.0 mi West 23.0 mph 33.4 mph N/A   Overcast
1:35 PM 34.7 °F 23.1 °F 23.5 °F 64% 29.97 in 10.0 mi West 21.9 mph 28.8 mph N/A   Overcast
1:55 PM 34.7 °F 22.0 °F 22.6 °F 61% 29.98 in 10.0 mi West 26.5 mph 33.4 mph N/A   Overcast
2:15 PM 34.7 °F 23.4 °F 22.6 °F 61% 29.99 in 10.0 mi West 20.7 mph 26.5 mph N/A   Overcast
2:35 PM 34.2 °F 21.0 °F 23.2 °F 64% 30.00 in 10.0 mi West 27.6 mph 36.8 mph N/A   Overcast
2:55 PM 33.8 °F 22.5 °F 22.6 °F 64% 30.02 in 10.0 mi WNW 19.6 mph 34.5 mph N/A   Overcast
3:15 PM 33.8 °F 21.0 °F 22.5 °F 63% 30.04 in 10.0 mi West 25.3 mph 29.9 mph N/A   Overcast
3:35 PM 33.6 °F 22.2 °F 22.8 °F 65% 30.05 in 10.0 mi West 19.6 mph 28.8 mph N/A   Overcast
3:55 PM 33.4 °F 23.5 °F 23.2 °F 66% 30.07 in 10.0 mi West 15.0 mph 28.8 mph N/A   Overcast
4:15 PM 33.3 °F 22.1 °F 22.5 °F 65% 30.07 in 10.0 mi WNW 18.4 mph 28.8 mph N/A   Overcast
4:35 PM 33.3 °F 20.1 °F 21.9 °F 63% 30.08 in 10.0 mi West 26.5 mph 31.1 mph N/A   Overcast
4:55 PM 33.1 °F 21.2 °F 21.4 °F 62% 30.10 in 10.0 mi WNW 20.7 mph 26.5 mph N/A   Overcast
5:15 PM 32.9 °F 21.6 °F 21.4 °F 63% 30.11 in 10.0 mi WNW 18.4 mph 27.6 mph N/A   Overcast
5:35 PM 32.9 °F 22.4 °F 21.4 °F 63% 30.12 in 10.0 mi WNW 16.1 mph 26.5 mph N/A   Overcast
5:55 PM 32.2 °F 20.7 °F 21.2 °F 64% 30.14 in 10.0 mi WNW 18.4 mph 28.8 mph N/A   Mostly Cloudy
6:15 PM 32.0 °F 20.5 °F 20.8 °F 63% 30.14 in 10.0 mi WNW 18.4 mph 28.8 mph N/A   Mostly Cloudy
6:35 PM 32.0 °F 19.2 °F 21.0 °F 64% 30.15 in 10.0 mi WNW 23.0 mph 29.9 mph N/A   Mostly Cloudy
6:55 PM 31.8 °F 20.6 °F 20.1 °F 62% 30.16 in 10.0 mi WNW 17.3 mph 23.0 mph N/A   Scattered Clouds
7:15 PM 31.1 °F 20.5 °F 20.1 °F 64% 30.17 in 10.0 mi WNW 15.0 mph 23.0 mph N/A   Clear
7:35 PM 30.9 °F 19.8 °F 20.5 °F 65% 30.18 in 10.0 mi West 16.1 mph 24.2 mph N/A   Clear
8:15 PM 30.0 °F 21.1 °F 20.7 °F 68% 30.20 in 10.0 mi WNW 10.4 mph 16.1 mph N/A   Clear
8:35 PM 29.7 °F 21.3 °F 20.5 °F 69% 30.21 in 10.0 mi West 9.2 mph - N/A   Clear
8:55 PM 29.1 °F 20.6 °F 20.8 °F 71% 30.22 in 10.0 mi West 9.2 mph - N/A   Clear
9:15 PM 28.8 °F 19.5 °F 21.2 °F 73% 30.23 in 10.0 mi West 10.4 mph - N/A   Clear
9:35 PM 28.8 °F 20.9 °F 20.8 °F 72% 30.24 in 10.0 mi West 8.1 mph - N/A   Clear
9:55 PM 28.6 °F 20.7 °F 20.8 °F 73% 30.26 in 10.0 mi West 8.1 mph - N/A   Clear
10:15 PM 28.2 °F 19.5 °F 20.7 °F 73% 30.26 in 10.0 mi West 9.2 mph - N/A   Clear
10:35 PM 28.0 °F 18.6 °F 20.3 °F 73% 30.27 in 10.0 mi West 10.4 mph - N/A   Clear
10:55 PM 27.7 °F 19.6 °F 19.8 °F 72% 30.28 in 10.0 mi West 8.1 mph - N/A   Clear
11:15 PM 27.3 °F 18.4 °F 19.8 °F 73% 30.29 in 10.0 mi West 9.2 mph - N/A   Clear
11:35 PM 27.1 °F 18.9 °F 19.8 °F 74% 30.30 in 10.0 mi West 8.1 mph - N/A   Clear
11:55 PM 26.6 °F 17.5 °F 19.9 °F 76% 30.31 in 10.0 mi West 9.2 mph - N/A   Clear